EST,Max TemperatureF,Mean TemperatureF,Min TemperatureF,Max Dew PointF,MeanDew PointF,Min DewpointF,Max Humidity, Mean Humidity, Min Humidity, Max Sea Level PressureIn, Mean Sea Level PressureIn, Min Sea Level PressureIn, Max VisibilityMiles, Mean VisibilityMiles, Min VisibilityMiles, Max Wind SpeedMPH, Mean Wind SpeedMPH, Max Gust SpeedMPH,PrecipitationIn, CloudCover, Events, WindDirDegrees
2014-2-1,37,32,28,34,29,23,93,87,80,30.15,29.96,29.80,6,3,0,10,4,,0.54,8,Fog-Rain-Snow,68
2014-2-2,30,24,19,25,18,12,86,74,60,30.28,30.13,29.95,10,10,8,10,5,,0.00,6,,322
2014-2-3,27,20,12,13,10,7,78,67,46,31.11,30.32,28.22,10,10,9,7,2,,0.00,0,,316
2014-2-4,25,18,10,15,10,5,88,70,51,31.14,30.35,28.24,10,8,2,15,2,22,0.00,3,Snow,67
2014-2-5,27,18,6,19,15,0,86,76,60,31.06,30.06,29.87,10,4,0,24,13,33,0.19,7,Fog-Rain-Snow,17
2014-2-6,21,14,6,11,6,0,80,69,59,30.39,30.32,30.23,10,9,2,21,7,28,0.00,7,Snow,243
2014-2-7,12,6,0,0,-4,-8,78,66,54,30.37,30.33,30.29,10,10,7,15,12,25,0.00,3,,233
2014-2-8,19,11,3,11,5,-5,81,69,62,30.37,30.27,30.18,10,8,2,8,6,,0.00,7,Snow,218
2014-2-9,25,18,12,13,10,5,84,72,51,30.91,30.19,30.00,10,6,1,9,2,,0.02,7,Snow,287
2014-2-10,21,16,12,11,8,3,81,64,50,31.06,30.41,30.19,10,9,5,10,6,,0.00,6,Snow,288
2014-2-11,16,10,5,4,1,-2,73,62,52,30.54,30.48,30.40,10,10,7,9,5,,0.00,5,,323
2014-2-12,19,10,0,10,1,-8,91,74,52,30.51,30.33,30.13,10,7,0,8,2,,0.00,2,Fog,136
2014-2-13,26,19,12,11,9,6,77,61,49,30.62,29.91,29.56,10,10,9,7,3,,0.00,4,,137
2014-2-14,32,26,21,24,17,12,82,69,54,29.79,29.60,29.45,10,7,2,15,6,22,0.00,6,Snow,273
2014-2-15,25,17,9,16,6,0,74,61,48,30.76,30.07,29.80,10,10,10,10,8,,0.00,2,,313
2014-2-16,25,18,8,16,12,3,86,73,59,31.00,30.18,29.96,10,6,1,13,3,20,0.01,6,Snow,5
2014-2-17,28,13,0,25,10,-6,88,76,65,30.42,30.02,29.62,10,7,0,20,6,26,0.07,4,Fog-Snow,115
2014-2-18,43,31,21,27,20,14,82,70,51,30.55,29.84,29.59,10,8,2,18,13,26,0.00,5,Snow,247
2014-2-19,46,40,33,31,28,25,81,64,44,30.06,29.81,29.61,10,9,1,14,9,25,0.00,3,Snow,265
2014-2-20,42,34,30,39,31,27,93,85,75,30.08,29.79,29.43,7,3,0,16,8,25,0.75,6,Fog-Rain-Snow-Thunderstorm,108
2014-2-21,50,42,33,45,28,14,87,65,46,29.78,29.56,29.40,10,10,10,30,19,53,0.00,6,,230
2014-2-22,39,36,33,29,17,5,73,48,31,29.99,29.89,29.76,10,10,9,23,16,33,0.00,2,,248
2014-2-23,34,29,23,16,11,7,60,49,38,30.09,30.04,29.98,10,10,10,17,10,25,0.00,1,,272
2014-2-24,27,23,19,12,9,5,71,57,49,30.18,30.13,30.06,10,10,4,20,11,28,0.00,8,Snow,285
2014-2-25,25,20,16,16,8,1,80,61,48,30.91,30.18,29.99,10,8,1,17,9,31,0.00,7,Snow,279
2014-2-26,16,12,8,1,-1,-5,64,54,43,30.14,29.97,29.67,10,10,10,22,11,31,0.00,3,,266
2014-2-27,15,10,3,9,-3,-13,74,53,32,30.25,29.80,29.51,10,8,2,24,14,33,0.00,5,Snow,293
2014-2-28,18,9,0,9,-3,-15,68,54,45,30.38,30.29,30.14,10,10,10,12,6,,0.00,2,,131